Location: Hochstatterhof
(48.7256°N, 10.3487°E)
Time: 02:20:24
(UTC+00:00)

IDEFIX/ARIANE 42P - Pass Details

Date: 26 September 2023
Orbit: 782 x 801 km, 98.5° (Epoch: 04 December)

Event Time Altitude Azimuth Distance (km) Brightness Sun altitude
Rises 02:46:41 0° 4° (N) 3,325 6.2 -23.6°
Reaches altitude 10° 02:49:31 10° 349° (N) 2,391 5.2 -23.2°
Enters shadow 02:52:49 21° 311° (NW) 1,748 4.1 -22.7°
